Weather observations for the past three days for
Duluth - Sky Harbor Airport
Metric (Imperial)
Date Time (cdt) Wind (kph) Vis. (km) Weather Sky Cond. Temperature (ºC) Relative Humidity Wind Chill (°C) Heat Index (°C) Pressure Precipitation (cm)
Air Dwpt 6 hour altimeter (cm) sea level (mb) 1 hr 3 hr 6 hr
Max. Min.
05 10:35 NE 26 3.22 Unknown Precip Fog/Mist BKN004 16 16 100% 76.45 0.0
05 10:15 NE 20 4.02 Unknown Precip Fog/Mist OVC004 16 16 100% 76.43 0.0
05 09:55 NE 17 2.01 Unknown Precip Fog/Mist OVC003 17 17 100% 76.43 0.0
05 09:35 NE 20 3.22 Unknown Precip Fog/Mist OVC003 17 17 100% 76.4 0.0
05 09:15 NE 26 4.02 Fog/Mist OVC003 17 17 100% 76.38 0.0
05 08:55 NE 24 2.41 Unknown Precip Fog/Mist OVC003 17 17 100% 76.38 0.0
05 08:35 NE 24 2.82 Unknown Precip Fog/Mist OVC003 16 16 100% 76.38 0.0
05 08:15 NE 20 2.01 Unknown Precip Fog/Mist OVC003 16 16 100% 76.38 0.0
05 07:55 NE 20 2.82 Unknown Precip Fog/Mist OVC003 16 16 100% 76.38 0.0
05 07:35 Calm 3.22 Unknown Precip Fog/Mist OVC004 0 0 0% 0 0.0
05 07:15 NE 26 4.02 Unknown Precip Fog/Mist OVC004 16 16 100% 76.35 0.0
05 06:35 NE 20 4.83 Unknown Precip Fog/Mist OVC005 16 16 100% 76.28 0.0
05 06:15 NE 22 4.83 Unknown Precip Fog/Mist OVC006 16 16 100% 76.25 0.0
05 05:55 NE 22 4.02 Unknown Precip Fog/Mist OVC006 16 16 100% 76.25 0.0
05 05:35 NE 20 4.02 Unknown Precip Fog/Mist OVC006 16 16 100% 76.28 0.0
05 05:15 NE 20 4.83 Unknown Precip Fog/Mist OVC007 17 17 100% 76.28 0.0
05 04:55 NE 22 14.48 Overcast OVC007 17 17 100% 76.28 0.0
05 04:35 NE 22 16.09 NULL NULL 17 17 100% 76.28 0.0
05 04:15 NE 28 14.48 Overcast OVC008 17 17 100% 76.28 0.0
05 03:55 NE 26 14.48 Overcast OVC009 17 17 100% 76.28 0.0
05 03:35 NE 19 16.09 Overcast OVC010 17 17 100% 76.3 0.0
05 03:15 NE 22 16.09 Overcast OVC009 17 17 100% 76.28 0.0
05 02:55 NE 24 16.09 Overcast OVC009 17 17 100% 76.28 0.0
05 02:35 NE 24 16.09 Overcast OVC009 17 17 100% 76.28 0.0
05 02:15 NE 17 16.09 Overcast OVC009 17 17 100% 76.28 0.0
05 01:55 NE 15 16.09 Overcast OVC009 17 17 100% 76.28 0.0
05 01:35 NE 17 16.09 Overcast OVC008 17 17 100% 76.28 0.0
05 01:15 NE 20 16.09 Overcast OVC006 17 17 100% 76.28 0.0
05 00:55 NE 28 6.44 Fog/Mist OVC004 17 17 100% 76.28 0.0
05 00:35 NE 28 3.22 Unknown Precip Fog/Mist OVC003 17 17 100% 76.28 0.0
05 00:15 NE 30 3.22 Fog/Mist OVC003 17 17 100% 76.28 0.0
04 23:55 NE 30 3.22 Fog/Mist OVC003 17 17 100% 76.25 0.0
04 23:35 NE 26 2.41 Unknown Precip Fog/Mist OVC003 17 17 100% 76.25 0.0
04 23:15 NE 26 2.41 Unknown Precip Fog/Mist OVC003 17 17 100% 76.25 0.0
04 22:55 NE 24 1.61 Unknown Precip Fog/Mist OVC003 17 17 100% 76.28 0.0
04 22:35 Calm 4.02 Fog/Mist OVC003 17 17 100% 76.28 0.0
04 22:15 NE 26 4.83 Fog/Mist OVC003 17 17 100% 76.3 0.0
04 21:55 NE 26 3.22 Fog/Mist OVC003 17 17 100% 76.3 0.0
04 21:35 NE 28 4.02 Fog/Mist OVC004 17 17 100% 76.28 0.0
04 21:15 NE 28 6.44 Fog/Mist OVC004 17 17 100% 76.28 0.0
04 20:55 NE 30 6.44 Unknown Precip Fog/Mist OVC004 17 17 100% 76.25 0.0
04 20:35 NE 30 6.44 Unknown Precip Fog/Mist OVC004 17 17 100% 76.23 0.0
04 20:15 NE 26 4.02 Unknown Precip Fog/Mist NULL 17 17 100% 76.23 0.0
04 19:55 NE 31 6.44 Fog/Mist OVC004 17 17 100% 76.2 0.0
04 19:35 NE 33 16.09 Overcast and Breezy OVC004 17 17 100% 76.2 0.0
04 19:15 NE 30 G 41 16.09 Overcast OVC005 17 17 100% 76.2 0.0
04 18:55 NE 33 16.09 Overcast and Breezy OVC005 17 17 100% 76.2 0.0
04 18:35 NE 33 16.09 Overcast and Breezy OVC006 17 17 100% 76.2 0.0
04 18:15 NE 33 16.09 Overcast and Breezy OVC006 17 17 100% 76.17 0.0
04 17:55 NE 31 16.09 Overcast OVC005 17 17 100% 76.17 0.0
04 17:35 NE 35 16.09 Overcast and Breezy OVC006 17 17 100% 76.17 0.0
04 17:15 NE 31 16.09 Overcast BKN008 OVC012 17 17 100% 76.17 0.0
04 16:55 NE 37 G 46 16.09 Overcast and Breezy BKN011 OVC020 17 17 100% 76.17 0.0
04 16:35 NE 33 16.09 Overcast and Breezy OVC012 17 17 100% 76.15 0.0
04 16:15 NE 37 16.09 Overcast and Breezy BKN014 OVC022 17 17 100% 76.15 0.0
04 15:55 NE 33 G 44 16.09 Overcast and Breezy OVC014 17 17 100% 76.15 0.0
04 15:35 NE 35 16.09 Overcast and Breezy OVC013 17 17 100% 76.15 0.0
04 15:15 NE 35 16.09 Overcast and Breezy OVC012 17 17 100% 76.15 0.0
04 14:35 E 31 16.09 Overcast OVC013 17 17 100% 76.12 0.0
04 14:15 NE 31 16.09 Overcast OVC010 17 17 100% 76.12 0.0
04 13:55 NE 28 G 37 16.09 Overcast OVC010 17 17 100% 76.12 0.0
04 13:35 NE 28 16.09 Overcast OVC009 17 17 100% 76.1 0.0
04 13:15 NE 30 16.09 Overcast OVC008 17 17 100% 76.1 0.0
04 12:55 NE 30 G 43 16.09 Overcast OVC006 17 17 100% 76.1 0.0
04 12:35 NE 33 16.09 Breezy NULL 17 17 100% 76.1 0.0
04 12:15 Calm 6.44 Fog/Mist NULL 17 17 100% 0 0.0
04 11:35 NE 35 2.41 Unknown Precip Fog/Mist and Breezy OVC003 17 17 100% 76.07 0.0
04 11:15 NE 39 1.61 Unknown Precip Fog/Mist and Breezy OVC003 17 17 100% 76.07 0.0
04 10:55 NE 31 G 44 1.21 Unknown Precip Fog/Mist OVC003 17 17 100% 76.07 0.0
04 10:35 NE 37 G 48 1.21 Light Rain Fog/Mist and Breezy OVC003 17 17 100% 76.07 0.0
04 10:15 NE 37 1.21 Light Rain Fog/Mist and Breezy OVC004 17 17 100% 76.05 0.0
04 09:55 NE 39 G 50 1.21 Light Rain Fog/Mist and Breezy OVC003 17 17 100% 76.02 0.0
04 09:35 NE 37 0.80 Light Rain Fog/Mist and Breezy OVC003 17 17 100% 76.02 0.0
04 09:15 NE 37 G 48 1.21 Unknown Precip Fog/Mist and Breezy OVC003 17 17 100% 76 0.0
04 08:55 NE 31 1.21 Unknown Precip Fog/Mist OVC003 17 17 100% 76 0.0
04 08:35 NE 30 G 39 0.80 Unknown Precip Fog/Mist OVC003 17 17 100% 75.97 0.0
04 08:15 NE 30 0.80 Unknown Precip Fog/Mist OVC003 17 17 100% 75.95 0.0
04 07:55 NE 30 1.21 Unknown Precip Fog/Mist OVC003 17 17 100% 75.92 0.0
04 07:35 NE 33 G 43 1.21 Unknown Precip Fog/Mist and Breezy OVC003 17 16 94% 75.9 0.0
04 07:15 NE 31 1.61 Unknown Precip Fog/Mist OVC004 16 16 100% 75.9 0.0
04 06:55 NE 31 G 44 3.22 Unknown Precip Fog/Mist OVC004 16 16 100% 75.9 0.0
04 06:35 NE 35 G 48 14.48 Overcast and Breezy OVC005 16 16 100% 75.84 0.0
04 06:15 NE 35 16.09 Overcast and Breezy OVC006 17 16 94% 75.84 0.0
04 05:55 Calm 16.09 Overcast OVC006 17 17 100% 75.84 0.0
04 05:35 NE 35 16.09 Overcast and Breezy OVC008 17 17 100% 75.84 0.0
04 05:15 NE 35 16.09 Overcast and Breezy BKN008 OVC011 16 16 100% 75.84 0.0
04 04:55 NE 35 16.09 Breezy NULL 16 16 100% 75.82 0.0
04 04:35 NE 28 G 39 16.09 Overcast OVC012 17 16 94% 75.82 0.0
04 04:15 NE 33 16.09 Overcast and Breezy OVC012 17 17 100% 75.82 0.0
04 03:55 NE 30 16.09 Overcast OVC012 17 17 100% 75.87 0.0 0.03
04 03:35 NE 28 16.09 Mostly Cloudy BKN012 BKN021 BKN048 17 17 100% 75.87 0.0
04 03:15 E 19 G 31 12.87 Light Rain SCT009 BKN025 BKN037 17 17 100% 75.87 0.0
04 02:55 E 28 G 37 4.83 Thunderstorm in Vicinity Rain Fog/Mist FEW004 SCT012 BKN024 17 17 100% 75.82 0.0 0.41
04 02:35 NE 30 3.22 Heavy Rain Fog/Mist FEW004 SCT008 BKN012 17 17 100% 75.95 0.0
04 02:15 N 31 G 48 14.48 Thunderstorm in Vicinity Rain OVC008 17 17 100% 75.95 0.0
04 01:55 NE 41 G 50 16.09 Thunderstorm in Vicinity and Breezy OVC008 17 17 100% 75.84 0.0
04 01:35 NE 35 16.09 Thunderstorm in Vicinity and Breezy OVC010 17 17 100% 75.9 0.0
04 01:15 NE 28 16.09 Overcast OVC011 17 17 100% 75.9 0.0
04 00:55 NE 22 16.09 Overcast BKN011 OVC032 17 17 100% 75.95 0.0
04 00:35 NE 31 16.09 Overcast OVC033 17 17 100% 75.92 0.0
04 00:15 E 30 16.09 Overcast FEW024 OVC034 17 17 100% 75.92 0.0
03 23:55 E 37 16.09 Overcast and Breezy BKN024 OVC036 17 17 100% 75.95 0.0 0.05
03 23:35 E 43 11.27 Light Rain and Windy OVC024 17 17 100% 75.92 0.0
03 23:15 NE 41 G 50 11.27 Light Rain and Breezy OVC025 17 17 100% 75.95 0.0
03 22:55 NE 43 16.09 Overcast and Windy OVC024 17 17 100% 75.95 0.0 0.25
03 22:35 NE 44 11.27 Light Rain and Windy FEW004 BKN023 OVC042 17 17 100% 75.95 0.0
03 22:15 NE 39 6.44 Light Rain Fog/Mist and Breezy FEW004 SCT009 OVC041 17 17 100% 75.92 0.0
03 21:55 NE 43 6.44 Light Rain Fog/Mist and Windy SCT004 BKN018 OVC041 17 17 100% 75.95 0.0 0.66
03 21:35 NE 41 G 56 2.01 Thunderstorm Heavy Rain Fog/Mist and Breezy BKN004 BKN023 OVC036 18 17 94% 76 0.0
03 21:15 N 33 G 46 6.44 Thunderstorm in Vicinity Rain Fog/Mist and Breezy FEW004 BKN060 OVC075 17 17 100% 75.97 0.0
03 20:55 NE 37 G 48 16.09 Thunderstorm in Vicinity and Breezy OVC070 18 17 94% 75.9 0.0
03 20:35 NE 46 16.09 Overcast and Windy OVC065 18 17 94% 75.82 0.0
03 20:15 NE 48 16.09 Overcast and Windy BKN065 OVC075 18 17 94% 75.82 0.0
03 19:55 NE 46 16.09 Overcast and Windy OVC060 18 17 94% 75.87 0.0
03 19:35 NE 41 16.09 Overcast and Breezy OVC055 18 17 94% 75.84 0.0
03 19:15 NE 43 16.09 Overcast and Windy OVC055 18 17 94% 75.82 0.0
03 18:55 NE 46 16.09 Overcast and Windy BKN050 OVC060 18 17 94% 75.82 0.0
03 18:35 NE 46 G 61 16.09 Overcast and Windy SCT050 OVC060 18 17 94% 75.79 0.0
03 18:15 NE 50 G 63 16.09 Mostly Cloudy and Windy BKN050 BKN060 18 17 94% 75.79 0.0
03 17:55 NE 50 G 59 16.09 Thunderstorm in Vicinity and Windy CLR 18 17 94% 75.74 0.0
03 17:35 NE 48 G 59 16.09 Fair and Windy CLR 19 17 88% 75.77 0.0
03 17:15 NE 46 16.09 Fair and Windy CLR 19 17 88% 75.77 0.0
03 16:55 NE 44 G 57 16.09 Fair and Windy CLR 19 17 88% 75.77 0.0
03 16:35 NE 41 G 50 16.09 A Few Clouds and Breezy FEW070 19 17 88% 75.79 0.0
03 16:15 NE 41 16.09 Partly Cloudy and Breezy SCT070 19 17 88% 75.79 0.0
03 15:55 NE 39 16.09 Fair and Breezy CLR 19 17 88% 75.79 0.0
03 15:35 NE 35 G 50 16.09 Partly Cloudy and Breezy SCT050 19 17 88% 75.82 0.0
03 15:15 NE 33 16.09 Overcast and Breezy OVC050 19 17 88% 75.84 0.0
03 14:55 NE 37 G 50 16.09 Overcast and Breezy FEW040 BKN049 OVC060 19 17 88% 75.84 0.0
03 14:35 NE 35 G 46 16.09 Overcast and Breezy BKN047 OVC060 19 17 88% 75.84 0.0
03 14:15 NE 39 16.09 Mostly Cloudy and Breezy FEW050 BKN060 BKN080 19 17 88% 75.84 0.0
03 13:55 NE 31 G 41 16.09 Mostly Cloudy FEW049 BKN065 BKN075 19 17 88% 75.87 0.0
03 13:35 NE 33 G 44 16.09 A Few Clouds and Breezy FEW042 19 17 88% 75.87 0.0
03 13:15 NE 33 16.09 Mostly Cloudy and Breezy BKN046 19 17 88% 75.9 0.0
03 12:55 NE 35 16.09 Mostly Cloudy and Breezy BKN046 19 17 88% 75.92 0.0
03 12:35 NE 31 16.09 A Few Clouds FEW044 FEW055 19 17 88% 75.92 0.0
03 12:15 NE 31 16.09 Partly Cloudy SCT047 SCT055 19 17 88% 75.92 0.0
03 11:55 NE 35 16.09 Mostly Cloudy and Breezy SCT048 BKN060 19 17 88% 75.95 0.0
03 11:35 NE 33 G 43 16.09 Partly Cloudy and Breezy FEW050 SCT055 19 17 88% 75.95 0.0
03 11:15 NE 33 16.09 A Few Clouds and Breezy FEW044 19 17 88% 75.97 0.0
03 10:55 NE 31 16.09 Partly Cloudy SCT044 SCT060 19 17 88% 75.97 0.0
03 10:35 NE 30 16.09 Partly Cloudy SCT060 19 17 88% 75.97 0.0
03 10:15 NE 31 16.09 Fair CLR 19 17 88% 76 0.0
03 09:55 NE 28 16.09 Partly Cloudy SCT075 19 17 88% 76 0.0
03 09:35 NE 24 16.09 Mostly Cloudy BKN075 18 17 94% 76 0.0
03 09:15 NE 24 16.09 Partly Cloudy SCT008 SCT075 18 17 94% 75.97 0.0
03 08:55 NE 20 16.09 Overcast OVC008 18 17 94% 76.02 0.0
03 08:35 NE 20 16.09 Overcast OVC008 18 17 94% 76.02 0.0
03 08:15 NE 20 16.09 Partly Cloudy SCT008 SCT055 18 17 94% 76.02 0.0
03 07:55 NE 20 16.09 Fair CLR 18 17 94% 76 0.0
03 07:35 NE 20 16.09 Fair CLR 18 17 94% 76 0.0
03 07:15 NE 19 16.09 Fair CLR 17 17 100% 76 0.0
03 06:55 E 15 16.09 Fair CLR 17 17 100% 76 0.0
03 06:35 NE 17 16.09 Fair CLR 17 17 100% 75.97 0.0
03 06:15 NE 20 16.09 Partly Cloudy SCT055 17 17 100% 75.97 0.0
03 05:55 NE 19 16.09 Overcast FEW044 OVC055 17 17 100% 75.97 0.0
03 05:35 NE 11 16.09 Overcast FEW038 FEW043 OVC055 17 17 100% 75.97 0.0
03 05:15 E 13 16.09 Mostly Cloudy FEW037 FEW043 BKN050 17 17 100% 75.95 0.0
03 04:55 Calm 16.09 Partly Cloudy FEW035 SCT049 SCT055 17 17 100% 75.97 0.0
03 04:35 Vrbl 7 16.09 A Few Clouds FEW044 FEW050 17 17 100% 75.95 0.0
03 04:15 Vrbl 6 16.09 Fair CLR 17 17 100% 75.95 0.0
03 03:55 E 11 16.09 Fair CLR 18 17 94% 75.92 0.0
03 03:35 NE 13 16.09 Fair CLR 18 17 94% 75.95 0.0
03 03:15 NE 15 16.09 Fair CLR 18 16 88% 75.95 0.0
03 02:55 NE 13 16.09 Fair CLR 18 17 94% 75.95 0.0
03 02:35 NE 13 16.09 Fair CLR 18 17 94% 75.97 0.0
03 02:15 NE 9 16.09 Fair CLR 18 17 94% 75.97 0.0
03 01:55 NE 17 16.09 A Few Clouds FEW100 18 17 94% 75.97 0.0
03 01:35 NE 13 16.09 Mostly Cloudy BKN110 18 17 94% 75.97 0.0
03 01:15 NE 13 16.09 Mostly Cloudy BKN120 18 17 94% 76 0.0
03 00:55 E 9 16.09 Mostly Cloudy FEW100 BKN120 19 16 83% 76 0.0
03 00:35 E 7 16.09 Fair CLR 19 17 88% 76 0.0
03 00:15 Calm 16.09 Partly Cloudy FEW050 SCT100 19 18 94% 75.97 0.0
02 23:55 Vrbl 7 16.09 Partly Cloudy FEW049 SCT100 19 18 94% 75.97 0.0
02 23:35 NE 11 16.09 A Few Clouds FEW049 FEW055 19 17 88% 75.97 0.0
02 23:15 NE 15 16.09 Partly Cloudy FEW050 SCT110 19 17 88% 75.97 0.0
02 22:55 NE 15 16.09 Mostly Cloudy BKN110 19 18 94% 75.97 0.0
02 22:35 Calm 16.09 Mostly Cloudy BKN110 19 18 94% 75.95 0.0
02 22:15 NE 13 16.09 Fair CLR 19 18 94% 75.97 0.0
02 21:55 NE 15 16.09 A Few Clouds FEW049 20 17 83% 75.95 0.0
02 21:35 NE 6 16.09 Fair CLR 20 17 83% 75.95 0.0
02 21:15 N 7 16.09 Fair CLR 20 17 83% 75.92 0.0
02 20:55 N 7 16.09 Fair CLR 20 17 83% 75.92 0.0
02 20:35 N 6 16.09 Fair CLR 20 17 83% 75.9 0.0
02 20:15 N 9 16.09 Fair CLR 19 17 88% 75.9 0.0
02 19:55 Calm 16.09 Fair CLR 20 17 83% 75.87 0.0
02 19:35 Calm 14.48 Fair CLR 20 18 88% 75.9 0.0
02 19:15 Calm 16.09 Fair CLR 20 18 88% 75.87 0.0
02 18:55 Calm 16.09 Fair CLR 20 18 88% 75.87 0.0
02 18:35 E 7 16.09 Fair CLR 20 18 88% 75.87 0.0
02 18:15 E 11 16.09 Fair CLR 20 18 88% 75.87 0.0
02 17:55 Vrbl 6 16.09 Fair CLR 21 17 78% 75.87 0.0
02 17:35 E 7 16.09 Fair CLR 21 17 78% 75.84 0.0
02 17:15 NE 7 16.09 Fair CLR 20 18 88% 75.87 0.0
02 16:55 Vrbl 6 16.09 Fair CLR 21 18 83% 75.87 0.0
02 16:35 Vrbl 6 16.09 Fair CLR 21 18 83% 75.87 0.0
02 16:15 NE 13 16.09 NULL NULL 21 18 83% 75.87 0.0
02 15:35 N 11 16.09 Fair CLR 22 18 78% 75.87 0.0
02 15:15 Vrbl 9 16.09 Fair CLR 23 17 69% 75.87 0.0
02 14:55 E 7 16.09 Fair CLR 22 17 73% 75.9 0.0
02 14:35 E 9 16.09 Fair CLR 22 17 73% 75.9 0.0
02 14:15 NE 7 16.09 Fair CLR 21 18 83% 75.92 0.0
02 13:55 NE 11 16.09 Fair CLR 21 17 78% 75.92 0.0
02 13:35 E 9 16.09 Fair CLR 22 17 73% 75.92 0.0
02 13:15 E 9 16.09 Fair CLR 21 17 78% 75.92 0.0
02 12:55 E 11 16.09 NULL NULL 21 17 78% 75.92 0.0
02 12:35 E 9 16.09 Fair CLR 21 17 78% 75.95 0.0
02 12:15 NE 9 16.09 Fair CLR 21 17 78% 75.97 0.0
02 11:55 NE 9 16.09 Fair CLR 21 17 78% 75.97 0.0
02 11:35 NE 11 16.09 NULL NULL 21 17 78% 75.97 0.0
02 11:15 NE 9 16.09 NULL NULL 21 17 78% 75.97 0.0
02 10:55 Calm 16.09 Fair CLR 21 16 73% 75.97 0.0
Date Time (cdt) Wind (kph) Vis. (km) Weather Sky Cond. Air Dwpt Max. Min. Relative Humidity Wind Chill (°C) Heat Index (°C) altimeter (cm) sea level (mb) 1 hr 3 hr 6 hr
6 hour
Temperature (ºC) Pressure Precipitation (cm)